アトラス彗星

C/2019 J3 ( ATLAS )

English version
Home page
Updated on March 26, 2020

---------------------------------------------------------------------

・ プロフィール

発見日 2019年5月14日
発見光度 18.7等
発見者 Asteroid Terrestrial-Impact Last Alert System (ATLAS) search program

・ 写真集

・ 軌道要素

Epoch 2019 July 16.0 TT = JDT 2458680.5
T 2019 Aug. 1.89935 TT                                  Rudenko
q   2.3734556            (2000.0)            P               Q
z  -0.0001588      Peri.   16.55539     -0.17982804     -0.63660956
 +/-0.0000388      Node   270.51703     -0.96597503     -0.02977987
e   1.0003769      Incl.  131.41332     -0.18588736     +0.77061107
From 218 observations 2019 May 14-Aug. 26, mean residual 0".6.

・ 光度変化

        m1 = 12.5 + 5 logΔ + 10.0 log r

---------------------------------------------------------------------

軌道要素はM.P.E.C. 2020-F67に掲載されたものです。
光度グラフはComet for Windowsで作成したものです。

---------------------------------------------------------------------

Copyright(C) Seiichi Yoshida (comet@aerith.net). All rights reserved.